EW8380 Weather Reports


time (UTC)temp
F
wind
direction
speed
knots
gust
knots
rain 1hr
in
rain 24hr
in
rain mn
in
humidity
%
barometer
mb
20260503185350 75 309 1.7 4.3 0.00 0.00 0.00 51 1011.3
20260503185343 76 352 1.7 3.5 0.00 0.00 0.00 53 1011.3
20260503185004 75 25 1.7 7.8 0.00 0.00 0.00 52 1011.3
20260503183849 74 56 1.7 7.8 0.00 0.00 0.00 52 1011.6
20260503183844 74 340 2.6 7.8 0.00 0.00 0.00 54 1011.4
20260503182842 74 306 1.7 7.8 0.00 0.00 0.00 54 1011.4
20260503182343 73 8 2.6 8.7 0.00 0.00 0.00 54 1011.7
20260503181840 73 318 3.5 8.7 0.00 0.00 0.00 54 1011.6
20260503181339 73 42 3.5 7.0 0.00 0.00 0.00 56 1011.7
20260503180841 73 36 1.7 7.0 0.00 0.00 0.00 54 1011.7
20260503180337 72 49 0.9 5.2 0.00 0.00 0.00 56 1011.7
20260503175838 72 340 1.7 5.2 0.00 0.00 0.00 59 1011.8
20260503175339 71 305 1.7 5.2 0.00 0.00 0.00 60 1011.8
20260503174837 71 309 1.7 6.1 0.00 0.00 0.00 60 1011.8
20260503174337 70 316 1.7 6.1 0.00 0.00 0.00 61 1011.9
20260503173834 70 332 1.7 5.2 0.00 0.00 0.00 61 1011.9
20260503173335 70 21 1.7 6.1 0.00 0.00 0.00 62 1011.9
20260503172831 69 29 1.7 6.1 0.00 0.00 0.00 61 1011.9
20260503172337 69 63 1.7 6.1 0.00 0.00 0.00 63 1012.0
20260503172331 69 41 0.9 5.2 0.00 0.00 0.00 62 1012.0
20260503171329 69 328 2.6 6.1 0.00 0.00 0.00 64 1012.1
20260503170834 68 30 2.6 7.8 0.00 0.00 0.00 61 1012.1
20260503170830 68 2 3.5 7.8 0.00 0.00 0.00 61 1012.1
20260503170450 67 13 1.7 6.1 0.00 0.00 0.00 65 1012.0
20260503150816 61 339 0.0 0.9 0.00 0.00 0.00 77 1012.5
20260503150316 61 338 0.0 1.7 0.00 0.00 0.00 77 1012.4
20260503140314 58 343 0.9 2.6 0.00 0.00 0.00 81 1012.2
20260503131313 57 329 0.0 0.9 0.00 0.00 0.00 88 1011.9
20260503130812 56 341 0.0 0.9 0.00 0.00 0.00 88 1011.9
20260503130309 56 342 0.0 0.9 0.00 0.00 0.00 88 1011.9
20260503110802 59 11 0.9 3.5 0.00 0.00 0.00 84 1012.3
20260503110305 59 346 0.9 1.7 0.00 0.00 0.00 84 1012.2
20260503110301 59 3 0.9 3.5 0.00 0.00 0.00 84 1012.2
20260503100251 60 328 0.0 0.0 0.00 0.00 0.00 83 1012.3
20260503090249 59 321 0.0 0.0 0.00 0.00 0.00 84 1012.6
20260503081249 61 323 0.0 0.0 0.00 0.01 0.00 79 1012.7
20260503080748 61 323 0.0 0.9 0.00 0.01 0.00 79 1012.6
20260503080254 61 313 0.0 0.9 0.00 0.01 0.00 80 1012.6
20260503080249 61 324 0.0 0.9 0.00 0.01 0.00 79 1012.6
20260503072748 61 343 0.0 0.9 0.00 0.01 0.00 80 1012.6
20260503072254 61 321 0.0 0.0 0.00 0.01 0.00 80 1012.7
20260503072249 61 323 0.0 0.0 0.00 0.01 0.00 80 1012.7
20260503071907 61 322 0.0 0.0 0.00 0.01 0.00 80 1012.8
20260503070749 61 321 0.0 0.0 0.00 0.01 0.00 80 1012.8
20260503070249 61 321 0.0 0.9 0.00 0.01 0.00 80 1012.7
20260503060244 61 335 0.0 0.9 0.00 0.01 0.01 80 1012.7
20260503054744 61 279 0.0 0.0 0.00 0.01 0.01 79 1012.9
20260503054244 62 279 0.0 0.0 0.00 0.01 0.01 78 1012.9
20260503053903 62 33 2.6 5.2 0.00 0.01 0.01 77 1012.5
20260503053747 62 279 0.0 2.6 0.00 0.01 0.01 77 1012.7
20260503053743 62 332 0.9 4.3 0.00 0.01 0.01 77 1012.6
20260503052742 62 358 1.7 5.2 0.00 0.01 0.01 77 1012.5
20260503051742 62 3 1.7 4.3 0.00 0.01 0.01 77 1012.4
20260503051244 62 34 2.6 5.2 0.00 0.01 0.01 77 1012.5
20260503050744 62 10 2.6 6.1 0.00 0.01 0.01 77 1012.6
20260503050242 62 21 2.6 6.1 0.00 0.01 0.01 78 1012.5
20260503045743 62 20 1.7 5.2 0.00 0.01 0.01 78 1012.6
20260503045241 62 0 1.7 4.3 0.00 0.01 0.01 78 1012.6
20260503044740 62 340 1.7 4.3 0.00 0.01 0.01 77 1012.7
20260503044240 62 1 0.9 3.5 0.00 0.01 0.01 77 1012.9
20260503043741 62 356 0.9 3.5 0.00 0.01 0.01 78 1013.0
20260503043241 62 1 0.9 3.5 0.00 0.01 0.01 78 1012.8
20260503042741 62 47 1.7 3.5 0.00 0.01 0.01 77 1013.0
20260503042239 62 359 0.9 3.5 0.00 0.01 0.01 77 1012.8
20260503041741 62 11 0.0 2.6 0.00 0.01 0.01 75 1012.9
20260503041245 63 324 0.0 0.9 0.00 0.01 0.01 74 1012.7
20260503041240 63 352 0.0 0.9 0.00 0.01 0.01 74 1012.8
20260503040244 63 276 0.0 0.0 0.00 0.01 0.01 74 1012.6
20260503040238 63 276 0.0 0.0 0.00 0.01 0.01 74 1012.6
20260503035244 63 276 0.0 0.0 0.00 0.01 0.01 74 1012.7
20260503035240 63 276 0.0 0.0 0.00 0.01 0.01 74 1012.7
20260503034239 63 276 0.0 0.0 0.00 0.01 0.01 73 1012.6
20260503033743 63 291 0.0 0.0 0.00 0.01 0.01 73 1012.6
20260503033739 64 276 0.0 0.0 0.00 0.01 0.01 72 1012.6
20260503032738 63 292 0.0 0.0 0.00 0.01 0.01 74 1012.6
20260503032239 63 291 0.0 0.0 0.00 0.01 0.01 74 1012.5
20260503031739 63 291 0.0 0.0 0.00 0.01 0.01 75 1012.6
20260503031237 62 292 0.0 0.0 0.00 0.01 0.01 75 1012.5
20260503030736 62 291 0.0 1.7 0.00 0.01 0.01 76 1012.4
20260503030236 62 292 0.0 2.6 0.00 0.01 0.01 76 1012.4
20260503025736 62 280 0.0 2.6 0.00 0.01 0.01 76 1012.5
20260503025236 62 257 0.9 3.5 0.00 0.01 0.01 76 1012.4
20260503024737 63 296 1.7 6.1 0.00 0.01 0.01 76 1012.4
20260503024236 63 250 2.6 8.7 0.00 0.01 0.01 76 1012.5
20260503023738 63 243 4.3 11.3 0.00 0.01 0.01 76 1012.6
20260503023236 63 219 5.2 11.3 0.00 0.01 0.01 75 1012.5
20260503022737 63 193 5.2 11.3 0.00 0.01 0.01 74 1012.5
20260503022234 64 237 5.2 13.0 0.00 0.01 0.01 74 1012.6
20260503021735 64 266 5.2 14.8 0.00 0.01 0.01 73 1012.5
20260503021239 66 315 7.0 19.1 0.00 0.01 0.01 70 1012.6
20260503021234 65 142 6.1 14.8 0.00 0.01 0.01 72 1012.6
20260503020236 67 172 6.1 19.1 0.00 0.01 0.01 67 1012.5
20260503015734 69 221 1.7 9.6 0.00 0.01 0.01 64 1012.2
20260503015236 69 242 0.9 2.6 0.00 0.01 0.01 64 1011.9
20260503014739 69 259 0.0 1.7 0.00 0.01 0.01 63 1011.8
20260503014734 69 217 0.0 2.6 0.00 0.01 0.01 64 1011.8
20260503013736 69 231 0.0 1.7 0.00 0.01 0.01 63 1011.7
20260503013237 69 271 0.0 0.9 0.00 0.01 0.01 62 1011.7
20260503013232 69 258 0.0 0.9 0.00 0.01 0.01 62 1011.7
20260503012232 69 276 0.0 0.0 0.00 0.01 0.01 62 1011.8
20260503011732 69 271 0.0 0.0 0.00 0.01 0.01 61 1011.8
20260503011233 69 271 0.0 0.0 0.00 0.01 0.01 62 1011.7
20260503010732 69 288 0.0 0.9 0.00 0.01 0.01 63 1011.7
20260503010237 69 297 0.0 0.0 0.00 0.01 0.01 62 1011.6
20260503010232 69 283 0.0 0.9 0.00 0.01 0.01 61 1011.6
20260503005232 69 297 0.0 0.9 0.00 0.01 0.01 61 1011.7
20260503004733 69 297 0.0 1.7 0.00 0.01 0.01 61 1011.7
20260503004231 69 288 0.0 1.7 0.00 0.01 0.01 61 1011.7
20260503003730 69 340 0.0 0.9 0.00 0.01 0.01 61 1011.8
20260503003231 69 291 0.9 3.5 0.00 0.01 0.01 61 1011.7
20260503002730 69 301 0.9 3.5 0.00 0.01 0.01 60 1011.7
20260503002231 69 312 0.9 2.6 0.00 0.01 0.01 60 1011.7
20260503001730 69 328 0.0 3.5 0.00 0.01 0.01 60 1011.7
20260503001230 69 311 0.0 3.5 0.00 0.01 0.01 60 1011.7
20260503000736 69 286 0.9 4.3 0.00 0.01 0.01 60 1011.7
20260503000731 69 307 0.0 1.7 0.00 0.01 0.01 61 1011.7
20260502235731 69 295 0.9 4.3 0.00 0.01 0.01 60 1011.9
20260502235228 69 269 0.9 3.5 0.00 0.01 0.01 61 1011.9
20260502234728 69 333 0.9 4.3 0.00 0.01 0.01 60 1011.9
20260502234229 69 255 0.9 4.3 0.00 0.01 0.01 61 1012.0
20260502233729 69 314 1.7 4.3 0.00 0.01 0.01 60 1012.0
20260502233228 69 288 1.7 5.2 0.00 0.01 0.01 61 1011.9
20260502232727 69 299 0.9 5.2 0.00 0.01 0.01 61 1012.0
20260502232228 69 302 0.0 3.5 0.00 0.01 0.01 61 1012.1
20260502231728 69 1 0.9 4.3 0.00 0.01 0.01 61 1012.2
20260502231229 68 344 0.9 4.3 0.00 0.01 0.01 62 1012.2
20260502230731 68 301 1.7 4.3 0.00 0.01 0.01 62 1012.3
20260502230726 68 13 0.9 4.3 0.00 0.01 0.01 63 1012.2
20260502230350 68 320 2.6 4.3 0.00 0.01 0.01 63 1012.4
20260502225848 67 309 1.7 4.3 0.00 0.01 0.01 63 1012.4
20260502224728 67 31 0.9 6.1 0.00 0.01 0.01 63 1012.5
20260502224231 66 344 0.9 5.2 0.00 0.01 0.01 65 1012.6
20260502224227 67 314 1.7 6.1 0.00 0.01 0.01 66 1012.5
20260502223225 67 338 0.9 5.2 0.00 0.01 0.01 65 1012.7
20260502222727 67 276 0.9 4.3 0.00 0.01 0.01 65 1012.9
20260502222226 66 82 0.9 5.2 0.00 0.01 0.01 65 1012.9
20260502221731 65 60 0.9 4.3 0.00 0.01 0.01 65 1013.2
20260502221724 66 45 0.9 5.2 0.00 0.01 0.01 65 1012.9
20260502221223 66 325 1.7 4.3 0.00 0.01 0.01 65 1013.1
20260502220724 65 352 0.9 4.3 0.00 0.01 0.01 64 1013.1
20260502215724 65 301 1.7 5.2 0.00 0.01 0.01 65 1013.3
20260502215224 65 286 0.9 5.2 0.00 0.01 0.01 65 1013.3
20260502214729 64 297 0.9 2.6 0.00 0.01 0.01 68 1013.4
20260502214723 65 318 0.0 3.5 0.00 0.01 0.01 67 1013.4
20260502214346 64 68 0.9 2.6 0.00 0.01 0.01 68 1013.5
20260502213224 64 15 0.9 5.2 0.00 0.01 0.01 67 1013.6
20260502212721 63 300 0.9 5.2 0.00 0.01 0.01 68 1013.7
20260502212222 63 317 0.9 3.5 0.00 0.01 0.01 70 1013.8
20260502211723 63 19 0.9 4.3 0.00 0.01 0.01 69 1013.7
20260502211223 64 333 0.9 4.3 0.00 0.01 0.01 68 1013.9
20260502210719 64 310 0.9 3.5 0.00 0.01 0.01 68 1013.8
20260502210221 63 304 0.9 3.5 0.00 0.01 0.01 72 1013.8
20260502205721 63 56 0.9 3.5 0.00 0.01 0.01 69 1013.9
20260502205221 62 320 0.0 2.6 0.00 0.01 0.01 71 1014.1
20260502204720 62 4 0.0 2.6 0.00 0.01 0.01 70 1014.3
20260502204220 61 50 0.0 2.6 0.00 0.01 0.01 71 1014.4
20260502203718 61 295 0.9 7.0 0.00 0.01 0.01 73 1014.5
20260502203223 60 338 0.9 3.5 0.00 0.01 0.01 75 1014.5
20260502203219 60 321 0.9 7.0 0.00 0.01 0.01 74 1014.5
20260502202222 60 292 0.9 3.5 0.00 0.01 0.01 74 1014.5
20260502202216 59 310 0.9 5.2 0.00 0.01 0.01 75 1014.6
20260502201836 59 326 0.0 5.2 0.00 0.01 0.01 74 1014.6
20260502200714 59 276 0.9 5.2 0.00 0.01 0.01 76 1014.7
20260502200214 59 330 1.7 5.2 0.00 0.01 0.01 75 1014.8
20260502195715 59 300 1.7 6.1 0.00 0.01 0.01 76 1014.7
20260502195218 59 318 1.7 6.1 0.00 0.01 0.01 75 1014.7
20260502195212 58 45 1.7 5.2 0.00 0.01 0.01 77 1014.8
20260502194216 59 359 0.9 5.2 0.00 0.01 0.01 75 1014.9
20260502194211 58 300 1.7 4.3 0.00 0.01 0.01 77 1014.8
20260502193211 58 323 2.6 5.2 0.00 0.01 0.01 77 1014.9
20260502192715 57 307 0.9 6.1 0.00 0.01 0.01 77 1015.0
20260502192711 57 316 1.7 6.1 0.00 0.01 0.01 79 1014.9
20260502192333 57 326 0.9 6.1 0.00 0.01 0.01 79 1015.1
20260502191214 56 318 2.6 6.1 0.00 0.01 0.01 80 1015.2
20260502191208 56 303 2.6 7.0 0.00 0.01 0.01 80 1015.2
20260502190212 55 328 0.9 3.5 0.00 0.01 0.01 81 1015.4
20260502190207 55 233 1.7 7.0 0.00 0.01 0.01 81 1015.3